Location: Newark
(29.9790°N, 31.1340°E)
Time: 02:04:15
(UTC+00:00)

Vanguard 2 Rocket - All Passes

Search period start: 21 January 2020 00:00
Search period end: 31 January 2020 00:00
Orbit: 554 x 3326 km, 32.9° (Epoch: 20 January)

Date Brightness Start Highest point End Pass type
(mag) Time Alt. Az. Time Alt. Az. Time Alt. Az.
21 Jan - 02:48:07 10° SW 02:52:16 48° SSE 02:58:25 10° E visible
21 Jan - 04:59:54 10° W 05:05:34 74° N 05:15:42 10° E daylight
21 Jan - 07:12:21 10° WNW 07:20:27 85° NNE 07:35:27 10° ESE daylight
21 Jan - 09:25:27 10° WNW 09:36:31 59° SSW 09:54:30 10° SE daylight
21 Jan - 11:41:36 10° W 11:53:36 28° SW 12:08:44 10° SSE daylight
22 Jan - 01:49:49 10° SSW 01:53:15 26° SSE 01:57:31 10° E visible
22 Jan - 04:01:00 10° W 04:05:49 82° NNW 04:13:56 10° ENE visible
22 Jan - 06:13:17 10° WNW 06:20:05 76° N 06:32:37 10° E daylight
22 Jan - 08:25:54 10° WNW 08:35:27 70° SSW 08:52:14 10° ESE daylight
22 Jan - 10:40:24 10° W 10:52:03 36° SSW 11:08:27 10° SSE daylight
22 Jan - 13:05:17 10° SW 13:09:32 11° SW 13:13:58 10° SSW daylight
23 Jan - 00:52:18 10° S 00:54:15 13° SE 00:56:17 10° ESE visible
23 Jan - 03:02:08 10° WSW 03:06:23 77° SSE 03:12:48 10° ENE visible
23 Jan - 05:14:19 10° W 05:20:01 71° N 05:30:10 10° E daylight
23 Jan - 07:26:39 10° WNW 07:34:45 82° SSW 07:49:39 10° ESE daylight
23 Jan - 09:40:06 10° W 09:50:42 44° SSW 10:07:18 10° SE daylight
23 Jan - 11:58:41 10° WSW 12:07:50 17° SW 12:18:38 10° S daylight
24 Jan - 02:03:23 10° SW 02:07:13 48° SSE 02:12:11 10° E visible
24 Jan - 04:15:23 10° W 04:20:13 70° N 04:28:19 10° E visible
24 Jan - 06:27:37 10° WNW 06:34:26 86° NNE 06:47:02 10° ESE daylight
24 Jan - 08:40:21 10° W 08:49:40 54° SSW 09:05:34 10° SE daylight
24 Jan - 10:56:12 10° W 11:06:18 24° SSW 11:19:38 10° SSE daylight
25 Jan - 01:04:50 10° SSW 01:08:11 27° SSE 01:11:50 10° E visible
25 Jan - 03:16:26 10° W 03:20:41 77° N 03:27:07 10° ENE visible
25 Jan - 05:28:42 10° WNW 05:34:25 75° N 05:44:39 10° E daylight
25 Jan - 07:41:01 10° WNW 07:49:00 65° SSW 08:03:27 10° SE daylight
25 Jan - 09:55:13 10° W 10:04:59 31° SSW 10:19:19 10° SSE daylight
26 Jan - 00:06:44 10° S 00:09:04 15° SSE 00:11:20 10° ESE night (unlit)
26 Jan - 02:17:27 10° WSW 02:21:24 81° SSE 02:26:34 10° ENE visible
26 Jan - 04:29:48 10° W 04:34:39 67° N 04:42:46 10° E daylight
26 Jan - 06:41:56 10° WNW 06:48:43 78° SSW 07:01:12 10° ESE daylight
26 Jan - 08:55:06 10° W 09:03:58 39° SSW 09:18:14 10° SSE daylight
26 Jan - 11:14:00 10° WSW 11:20:45 14° SSW 11:28:44 10° S daylight
27 Jan - 01:18:27 10° SW 01:22:16 50° SSE 01:26:29 10° E visible
27 Jan - 03:30:52 10° W 03:35:06 65° N 03:41:30 10° E visible
27 Jan - 05:43:01 10° WNW 05:48:45 88° NNE 05:59:03 10° ESE daylight
27 Jan - 07:55:32 10° W 08:03:18 47° SSW 08:16:43 10° SE daylight
27 Jan - 10:11:22 10° WSW 10:19:25 20° SSW 10:30:07 10° S daylight
28 Jan - 00:19:28 10° SW 00:23:11 29° SSE 00:26:39 10° E night (unlit)
28 Jan - 02:31:47 10° W 02:35:43 72° N 02:40:53 10° ENE visible
28 Jan - 04:44:10 10° WNW 04:49:03 74° N 04:57:15 10° E daylight
28 Jan - 06:56:20 10° W 07:03:00 58° SSW 07:14:57 10° SE daylight
28 Jan - 09:10:27 10° W 09:18:23 26° SSW 09:30:03 10° SSE daylight
28 Jan - 23:20:39 10° SSW 23:23:57 18° SSE 23:26:48 10° ESE night (unlit)
29 Jan - 01:32:33 10° WSW 01:36:30 86° SSE 01:40:51 10° ENE visible
29 Jan - 03:45:16 10° WNW 03:49:32 63° N 03:55:57 10° E visible
29 Jan - 05:57:21 10° WNW 06:03:03 72° SSW 06:13:11 10° ESE daylight
29 Jan - 08:10:25 10° W 08:17:41 32° SSW 08:29:16 10° SSE daylight
29 Jan - 10:31:15 10° SW 10:34:04 11° SSW 10:37:08 10° SSW daylight
29 Jan - 22:22:22 10° S 22:24:30 12° SSE 22:26:24 10° SE night (unlit)
30 Jan - 00:33:10 10° WSW 00:37:22 55° SSE 00:41:15 10° E night (unlit)
30 Jan - 02:46:13 10° W 02:50:08 60° N 02:55:15 10° E visible
30 Jan - 04:58:29 10° WNW 05:03:23 89° S 05:11:38 10° ESE daylight
30 Jan - 07:10:56 10° W 07:17:21 40° SSW 07:28:08 10° SE daylight
30 Jan - 09:27:14 10° WSW 09:32:57 15° SSW 09:40:12 10° S daylight
30 Jan - 23:33:40 10° SW 23:38:12 35° SSE 23:41:51 10° E night (unlit)
